Regional Weather Roundup
Issued by NWS Portland, ME

Home | Current Version | Previous Version | Text Only | Print | Product List | Glossary On
Versions: 1 2 3 4 5 6 7 8 9 10 11 12 13 14 15 16 17 18 19 20 21 22 23 24 25 26 27 28 29 30 31 32 33 34 35 36 37 38 39 40 41 42 43 44 45 46 47 48 49 50
000
ASUS41 KGYX 291305
RWRGYX
WEATHER ROUNDUP FOR MAINE AND NEW HAMPSHIRE
NATIONAL WEATHER SERVICE GRAY ME
900 AM EDT FRI APR 29 2016

MEZ002-005-006-010-012-015-018-020-021-024-026-027-029-291400-
MAINE

CITY           SKY/WX    TMP DP  RH WIND       PRES   REMARKS
PORTLAND       PTSUNNY   41  27  57 E8        30.23S
SANFORD        PTSUNNY   43  25  49 NE8       30.22S
BAR HARBOR     SUNNY     38   9  30 SE7       30.24S
WISCASSET      MOSUNNY   42  20  41 E5        30.25R
ROCKLAND       MOSUNNY   40  18  41 VRB5      30.25R
FRYEBURG       CLOUDY    40  13  33 E5        30.22S
LEWISTONAUBURN SUNNY     39  14  35 E3        30.23S
AUGUSTA        SUNNY     38  13  35 VRB5      30.23S
WATERVILLE     SUNNY     37  13  37 CALM      30.21R
BANGOR         MOSUNNY   41  13  31 SW3       30.24R
GREENVILLE       N/A     32   9  38 S6        30.14S
MILLINOCKET    SUNNY     37  10  32 CALM      30.22S
HOULTON        SUNNY     36  10  34 VRB3      30.19S
PRESQUE ISLE   SUNNY     34  12  40 SW7       30.20
FRENCHVILLE    SUNNY     34  10  37 VRB3      30.15S
CARIBOU        NOT AVBL
$$

NHZ002-005-008-009-011-012-014-291400-
NEW HAMPSHIRE

CITY           SKY/WX    TMP DP  RH WIND       PRES   REMARKS
PORTSMOUTH     MOSUNNY   47  35  63 E8        30.19S
ROCHESTER      MOSUNNY   43  27  53 VRB6      30.20S
NASHUA         PTSUNNY   45  31  58 SE3       30.19F
MANCHESTER     PTSUNNY   45  29  53 SE6       30.18S
CONCORD        CLOUDY    44  24  45 E3        30.20S
LACONIA        CLOUDY    37  18  44 E7        30.22R
PLYMOUTH       CLOUDY    38  14  36 E5        30.21R
BERLIN         SUNNY     37  14  38 CALM      30.17S
WHITEFIELD     SUNNY     41  16  36 CALM      30.16S
JAFFREY        CLOUDY    40  27  59 VRB5      30.16S
KEENE          CLOUDY    43  25  49 NW5       30.18S
LEBANON        CLOUDY    40  18  41 CALM      30.18S
MT WASHINGTON  MOSUNNY   18  16  93 W24         N/A  WCI   0
$$

VTZ005-007-008-291400-
VERMONT

CITY           SKY/WX    TMP DP  RH WIND       PRES   REMARKS
ST JOHNSBURY     N/A     37  17  44 MISG      30.18R
MONTPELIER     FAIR      36  20  52 CALM      30.20S
BURLINGTON     FAIR      41  18  39 CALM      30.17S
$$

MAZ007-012-024-CTZ003-RIZ002-NYZ038-NYZ072-291400-
SOUTHERN NEW ENGLAND AND NY

CITY           SKY/WX    TMP DP  RH WIND       PRES   REMARKS
BOSTON         CLOUDY    47  36  65 E12       30.19S
WORCESTER      MOSUNNY   42  34  73 VRB6      30.15S
NANTUCKET      CLOUDY    46  33  60 E13       30.17S
PROVIDENCE     PTSUNNY   48  35  60 E9        30.17F
HARTFORD       PTSUNNY   49  35  58 CALM      30.15R
ALBANY         PTSUNNY   46  24  42 CALM      30.15R
NEW YORK CITY  CLOUDY    51  33  50 NE12      30.11R
$$

ANZ081-ANZ082-ANZ150-NHZ014-MEZ023>029-291400-
COASTAL MARINE OBSERVATIONS

STATION/POSITION TIME  TEMP    WIND        PRES    WAVE
                       AIR SEA DIR/SP/G            HT/PER
                 (UTC) (F)     (DEG/KT/KT) (MB)    (FT/S)
MOUNT DESERT ROC 1300   38      50/  9/  9 1024.1R
MATINICUS ROCK   1200   39      80/ 13/ 15 1023.2R
ISLE OF SHOALS   1200   44     110/  8/  8 1021.9R
CASHES LEDGE BUO 1250   41 44   90/ 14/ 16 1022.8R   4/ 5
GEORGES BANK BUO 1150   44 44              1020.8    5/ 5
$$

.............KEY..............
   WCI - WIND CHILL
   TC  - TEMPERATURE IN CELSIUS
   VSB - VISIBILITY IN MILES
   HX  - HEAT INDEX
   FAIR- INDICATES FEW OR NO CLOUDS BELOW 12,000 FT, WITH NO
         SIGNIFICANT WEATHER AND/OR OBSTRUCTIONS TO VISIBILITY.





USA.gov is the U.S. government's official web portal to all federal, state and local government web resources and services.